GPS BIIRM-2 (PRN 31)

Last updated on Wed Nov 05 2025 00:03:16 GMT+0000 (Coordinated Universal Time)

1 29486U 06042A 25307.64003060 .00000103 00000+0 00000+0 0 9999 2 29486 54.6887 160.2930 0107181 50.8986 312.5194 2.00555541139874
UTC large
Height (km)
Speed (km/s)
/
Latitude / Longitude
Inclination (degrees)
Orbital Period (minutes)
Azimuth
Elevation
Range (km)
Doppler Factor

Next 0 passes for location: London (51.5072 / 0.1276)

Sorry there are no passes over London.